This is the latest recevied weather packets stored in our database for station/object LU1MQF-13. If no packets are shown the sender has not sent any weather packets the latest 10 day(s).
| Time | Temp. | Humidity | Pressure | Rain* | Wind** | Luminosity | Snow |
|---|---|---|---|---|---|---|---|
| 1777417913 | 20° C | 39% | 931.9 hPa | - | - | - | - |
| 1777417012 | 18.89° C | 35% | 931.6 hPa | - | - | - | - |
| 1777416113 | 18.89° C | 34% | 931.6 hPa | - | - | - | - |
| 1777415213 | 18.89° C | 33% | 931.6 hPa | - | - | - | - |
| 1777414312 | 18.89° C | 32% | 931.5 hPa | - | - | - | - |
| 1777413413 | 20° C | 30% | 931.7 hPa | - | - | - | - |
| 1777412513 | 20° C | 29% | 931.6 hPa | - | - | - | - |
| 1777411612 | 21.11° C | 26% | 931.5 hPa | - | - | - | - |
| 1777410712 | 21.11° C | 24% | 931.6 hPa | - | - | - | - |
| 1777409813 | 21.11° C | 24% | 931.7 hPa | - | - | - | - |
| 1777408914 | 21.11° C | 24% | 931.8 hPa | - | - | - | - |
| 1777408012 | 22.22° C | 23% | 932 hPa | - | - | - | - |
| 1777407112 | 22.22° C | 23% | 932.2 hPa | - | - | - | - |
| 1777406213 | 22.22° C | 23% | 932.6 hPa | - | - | - | - |
| 1777405312 | 22.22° C | 23% | 932.6 hPa | - | - | - | - |
| 1777404412 | 22.22° C | 23% | 932.9 hPa | - | - | - | - |
| 1777403513 | 22.78° C | 23% | 933.3 hPa | - | - | - | - |
| 1777402612 | 22.22° C | 23% | 933.6 hPa | - | - | - | - |
| 1777401711 | 22.22° C | 23% | 933.7 hPa | - | - | - | - |
| 1777400812 | 22.78° C | 24% | 934.2 hPa | - | - | - | - |
| 1777399911 | 22.78° C | 24% | 934.4 hPa | - | - | - | - |
| 1777399012 | 22.22° C | 26% | 935 hPa | - | - | - | - |
| 1777398112 | 22.22° C | 29% | 935.1 hPa | - | - | - | - |
| 1777397211 | 22.22° C | 26% | 935.6 hPa | - | - | - | - |
| 1777396312 | 22.22° C | 28% | 935.9 hPa | - | - | - | - |
* Rain since midnight (hover to see other rain measurements)
** Current wind speed in m/s (hover to see current wind gust speed)